Погода в Великих Озерах

Украина / Ровненская область     51°33′42″N   26°54′31″E
темп.,
°C
ветер,
м/с
пор.,
м/с
влажн.,
%
обл.,
%
осадки,
мм/ч
давл.,
гПа
погр.,
м
8 декабря, ср
ср823:00−6ссв41090100 0.0 1017346
02:00−6ссв41087100 0.0 1017373
05:00−6ссв4108594 0.0 1016396
08:00−6св4118385 0.0 1016412
11:00−5св5975100 0.0 1016422
14:00−3св587296 0.0 1015499
17:00−5св51082100 0.0 1015444
20:00−4св41083100 0.0 1015415
9 декабря, чт
чт923:00−4св3888100 0.1 1015353
02:00−4св3791100 0.1 1016315
05:00−3св3891100 0.1 1016316
08:00−3всв3891100 0.1 1016325
11:00−2всв3894100 0.1 1017304
14:00−2в3894100 0.3 1016291
17:00−1в4995100 0.0 1016341
20:00−1в3996100 0.0 1016379
10 декабря, пт
пт1023:000в41197100 0.0 1016431
02:00+1вюв51298100 0.0 1015454
05:00+2вюв51498100 0.0 1013486
08:00+3вюв61697100 0.0 1012621
11:00+3юв61598100 0.0 1012559
14:00+3вюв61398100 0.4 1010475
17:00+4вюв61697100 0.7 1009602
20:00+6вюв71895100 1.3 1007656
11 декабря, сб
сб1123:00+7юв81892100 0.8 1007709
02:00+6юв71793100 1.2 1007795
05:00+7юв61492100 1.8 1007535
08:00+4юз3598100 6.6 1009245
11:00+3юз3797100 1.1 1013421
14:00+4юз3693100 1.1 1016437
17:00+3ю2495100 0.0 1018268
20:00+3ююз238552 0.0 1021116
12 декабря, вс
вс1223:00+1всв1192100 0.0 102211
02:00+1всв3695100 0.0 1022145
05:00+2св3699100 4.3 1020142
08:00+5в51197100 10.4 1019439
11:00+6юв51495100 4.3 1018531
14:00+6вюв51389100 6.3 1017447
17:00+6вюв51390100 0.9 1017445
20:00+5юв41291100 2.7 1017650